Wind_Speed
19 20 20 20 20 21 21 22 23 24 25 25 26 27 28 29 30 31 32 33 33 34 35 36 37 39 39 41 42 44 45 46 48 49 50 51 51 52 52 54 55 56 57
20 20 21 21 22 22 23 24 24 25 25 26 27 27 28 29 30 31 32 33 34 35 36 37 38 39 40 41 43 45 46 47 49 51 52 52 52 53 54 55 57 58 59
21 21 22 23 24 24 25 25 25 26 26 26 27 28 29 30 31 31 32 33 34 36 37 38 39 41 42 43 45 47 48 50 51 53 55 56 56 56 55 56 58 60 62
22 23 24 24 25 26 26 26 26 26 27 27 28 29 30 30 31 32 33 34 36 37 39 40 42 43 45 46 48 50 52 53 54 56 58 60 62 63 61 60 61 63 65
23 24 25 26 27 27 27 26 26 26 27 27 28 29 30 31 32 33 35 36 38 39 41 43 45 46 48 49 51 53 55 57 59 61 63 65 67 69 70 68 68 68 68
25 26 26 27 28 27 27 27 27 27 27 28 29 31 32 33 34 35 37 38 40 42 44 45 47 49 51 53 56 58 60 62 64 66 69 70 72 73 75 76 75 75 75
26 27 27 28 28 28 28 28 28 29 30 31 32 33 34 35 36 38 39 41 43 45 47 49 51 53 56 58 61 63 65 68 70 72 74 76 77 79 80 82 82 82 81
27 27 28 28 28 29 29 29 30 31 32 34 35 36 37 38 39 40 42 44 46 49 51 53 55 58 60 63 65 68 70 72 74 76 78 80 81 83 85 86 87 88 87
28 28 29 29 30 30 31 31 32 34 35 36 37 38 39 40 42 44 46 48 50 52 55 57 60 62 65 68 70 72 75 77 79 80 82 84 85 86 88 89 90 91 91
29 30 30 31 32 32 33 34 35 36 37 38 39 41 42 44 46 48 50 53 55 57 59 62 65 67 70 73 75 77 79 81 83 84 85 86 87 88 88 89 90 91 92
31 32 33 33 34 35 36 37 38 39 40 41 42 44 46 48 50 52 54 57 59 62 64 67 70 72 75 77 79 81 83 84 85 86 86 86 86 86 86 86 87 87 88
34 34 35 36 37 38 38 39 40 41 42 44 46 47 49 51 54 56 59 61 64 66 69 72 74 76 79 81 82 84 85 85 85 84 84 83 82 81 80 80 79 79 79
36 37 38 39 39 40 41 42 43 44 46 47 49 51 53 55 57 60 63 65 68 71 73 76 78 80 82 83 84 85 85 84 82 81 79 77 75 74 73 72 72 71 71
38 39 40 40 41 42 43 44 46 47 49 51 52 54 56 59 61 64 67 69 72 75 77 79 81 82 84 84 84 83 82 80 77 75 72 70 68 66 65 64 64 63 63
39 40 41 42 43 44 45 46 48 50 52 53 55 57 60 62 65 68 70 73 75 78 80 81 83 83 84 83 82 80 77 74 71 67 65 62 61 60 59 58 57 58 58
41 42 42 43 44 45 47 48 50 52 54 56 58 61 63 66 68 71 73 76 78 80 81 82 83 82 81 79 76 74 71 67 63 60 57 56 56 55 55 54 54 54 54
42 43 44 45 46 47 49 50 52 54 57 59 61 64 66 69 71 74 76 78 80 81 82 81 80 78 75 73 70 68 65 61 57 55 53 52 52 52 51 51 51 50 50
43 44 45 46 47 49 51 52 55 57 59 61 64 67 69 71 74 76 78 80 81 81 80 79 76 73 70 67 65 62 58 55 52 52 51 50 49 49 48 48 47 47 47
44 45 46 47 49 51 52 54 57 59 62 64 66 69 72 74 76 78 79 80 80 79 77 75 72 68 65 62 59 56 53 51 50 49 48 47 47 46 47 46 45 44 43
45 46 47 49 50 52 54 56 59 61 64 66 69 71 74 76 78 79 80 80 79 76 74 70 67 64 61 58 55 53 51 49 48 46 46 45 45 45 45 45 44 43 43
46 47 48 50 52 54 56 58 61 64 66 68 70 73 75 77 78 79 79 78 76 73 70 67 63 60 57 54 51 50 49 48 46 44 43 43 43 43 43 43 43 42 42
47 48 49 51 54 56 58 61 63 66 68 70 72 74 76 78 79 78 77 75 73 69 66 62 59 56 53 50 48 47 47 46 44 43 43 42 42 42 42 41 41 41 41
48 49 51 53 56 58 61 63 65 68 69 71 74 75 77 77 78 76 74 72 69 65 62 59 55 51 49 48 46 45 45 45 44 43 42 42 41 41 41 41 40 40 40
50 51 53 55 57 60 63 65 68 69 71 73 75 76 77 77 75 74 71 68 65 61 58 55 52 48 46 45 44 43 43 43 43 43 42 41 40 40 40 39 39 39 39
51 53 55 57 60 62 64 67 69 71 73 75 76 77 76 76 73 70 67 64 60 58 55 52 50 47 45 43 42 41 41 41 41 40 39 39 39 38 38 38 38 37 37
53 55 57 60 62 64 67 69 71 73 75 75 76 76 75 73 71 67 63 59 57 54 52 51 49 47 44 42 41 40 40 40 39 38 37 37 36 36 36 35 35 34 34
Wind_Direction
292 293 293 293 293 293 293 293 293 292 291 290 289 287 286 286 285 285 285 285 284 283 283 282 281 281 281 280 280 279 278 278 277 277 276 276 276 275 275 274 274 273 273
292 292 292 292 294 294 295 294 294 293 292 291 290 290 289 289 289 288 287 287 286 286 286 285 285 284 284 284 283 282 281 281 280 280 279 278 277 276 275 275 275 274 274
291 291 292 293 295 295 295 294 294 293 292 291 291 290 290 290 290 290 289 289 289 289 288 288 287 286 286 285 285 284 284 283 283 283 282 282 280 278 276 275 275 275 274
291 291 292 293 295 295 295 294 295 294 292 292 291 291 291 291 291 291 290 290 290 290 290 290 289 289 288 288 287 287 286 286 286 285 284 284 283 282 280 277 275 274 274
290 290 291 293 294 294 294 294 294 294 293 293 292 292 292 292 291 291 291 291 291 291 291 291 291 290 290 290 289 289 288 288 287 286 286 285 284 283 283 281 278 276 275
289 290 291 292 293 293 293 293 294 293 293 293 293 293 293 293 293 292 292 292 293 293 293 293 292 292 291 291 290 290 289 289 288 287 286 285 284 283 282 282 280 278 276
289 290 290 291 292 292 293 293 293 293 293 293 293 293 293 293 292 292 292 293 293 293 293 293 293 293 292 292 291 291 290 290 289 288 287 286 285 284 282 281 280 278 277
289 289 290 291 291 292 292 292 292 292 292 292 293 293 293 293 293 293 293 294 294 294 294 294 294 294 293 293 292 292 291 290 289 289 288 286 285 284 283 281 280 278 277
289 289 290 291 291 291 291 292 292 293 293 293 293 293 293 293 293 294 295 295 295 295 295 295 295 295 295 294 294 293 292 291 290 289 288 287 286 284 283 281 280 279 277
289 289 290 290 291 291 291 292 293 293 294 294 294 294 295 295 295 296 297 297 297 297 297 297 297 296 296 295 295 294 293 292 291 290 289 288 286 285 283 281 280 279 278
289 289 290 290 291 291 292 293 293 294 295 295 295 296 296 297 297 298 298 298 298 299 298 298 298 298 298 297 297 296 295 294 293 292 290 289 287 286 284 283 281 280 279
289 290 290 291 291 291 292 293 294 295 296 296 297 297 298 299 299 300 300 300 301 301 300 300 300 300 300 299 299 298 297 296 295 293 292 290 289 287 286 284 283 281 280
289 290 290 291 291 292 292 293 295 296 297 297 298 299 300 301 301 302 302 302 303 303 303 303 302 302 302 301 300 299 298 297 296 294 293 292 290 289 287 285 284 283 282
289 290 290 291 291 292 293 294 295 296 298 299 300 300 301 302 303 304 304 304 304 305 305 304 304 304 303 303 302 301 299 298 297 296 294 293 291 289 288 286 285 284 283
288 289 290 291 291 292 293 294 296 297 299 300 301 302 303 304 304 305 305 306 306 306 306 306 306 306 305 304 303 301 300 299 298 296 295 293 292 290 289 288 287 285 284
289 289 290 290 291 292 294 295 297 298 300 301 302 303 304 305 306 306 307 308 308 308 308 308 308 307 306 305 303 302 301 300 298 297 295 294 292 291 289 289 288 287 286
288 289 290 291 292 293 294 296 298 299 301 302 303 304 305 306 307 308 308 309 309 309 310 309 309 308 306 305 304 302 301 300 299 297 296 294 293 292 290 288 288 287 286
288 289 290 291 292 294 295 297 299 300 301 303 304 305 306 307 308 309 310 310 311 311 311 310 309 308 307 305 303 302 301 300 299 298 296 295 294 293 291 290 288 287 285
288 289 290 291 293 294 296 298 300 301 303 304 306 307 308 309 310 311 311 312 312 312 311 311 310 308 307 305 303 302 301 300 299 298 297 296 295 294 292 291 290 289 286
288 289 290 292 294 295 297 299 301 302 304 306 307 308 309 310 311 312 312 313 313 312 312 311 310 308 307 305 304 301 300 300 299 298 297 296 295 294 293 292 291 289 287
289 290 292 294 295 297 299 300 302 304 305 307 308 309 310 311 312 313 313 313 313 312 312 311 310 308 307 305 303 301 301 301 300 299 299 298 296 295 294 293 292 290 288
290 292 294 296 297 299 300 302 303 305 306 308 309 310 311 312 313 314 314 314 313 312 311 310 309 308 306 305 303 301 301 302 302 301 300 299 297 296 295 294 292 291 289
292 294 295 297 298 300 302 303 304 306 307 309 310 311 312 313 314 314 314 314 313 311 310 309 308 307 305 304 302 301 301 302 302 302 301 300 298 297 296 294 293 291 289
293 295 296 298 300 301 303 304 305 307 308 310 311 312 313 314 314 314 314 313 312 311 309 308 307 306 305 303 302 301 301 302 302 302 301 300 300 299 297 296 294 293 291
295 296 298 299 301 302 304 305 306 308 309 310 311 312 313 314 314 314 314 313 312 310 309 308 307 307 306 304 302 302 302 303 303 302 302 301 300 299 299 297 296 294 293
296 297 299 301 302 303 305 306 308 309 310 311 312 313 314 314 314 314 313 312 311 310 308 308 308 308 307 305 304 304 304 305 305 305 304 303 302 302 302 301 299 297 296
Height
5820 5818 5817 5816 5814 5813 5811 5810 5808 5806 5804 5803 5801 5799 5797 5795 5793 5792 5790 5788 5786 5784 5782 5780 5778 5776 5774 5772 5769 5767 5765 5763 5760 5757 5756 5755 5753 5751 5749 5747 5744 5743 5741
5815 5814 5812 5811 5809 5808 5806 5804 5802 5800 5798 5797 5795 5793 5791 5788 5786 5784 5782 5780 5778 5775 5773 5771 5769 5766 5764 5762 5759 5756 5753 5751 5747 5745 5742 5741 5741 5739 5736 5733 5730 5728 5726
5810 5809 5807 5805 5804 5802 5800 5798 5797 5795 5792 5790 5788 5786 5784 5781 5779 5777 5774 5772 5769 5767 5764 5762 5759 5756 5754 5751 5747 5744 5741 5738 5735 5732 5728 5725 5724 5723 5723 5720 5716 5713 5710
5805 5803 5802 5800 5798 5796 5794 5792 5790 5788 5786 5784 5781 5779 5777 5774 5772 5769 5766 5764 5761 5758 5755 5752 5749 5746 5743 5740 5736 5732 5728 5725 5722 5718 5714 5710 5705 5703 5704 5704 5701 5697 5693
5799 5798 5796 5794 5792 5790 5788 5786 5784 5782 5779 5777 5775 5772 5769 5767 5764 5761 5758 5755 5752 5749 5745 5742 5739 5735 5731 5727 5723 5719 5715 5711 5707 5702 5698 5694 5689 5684 5681 5682 5681 5678 5676
5794 5792 5790 5788 5786 5784 5782 5780 5777 5775 5773 5770 5767 5765 5762 5759 5756 5753 5749 5746 5742 5739 5735 5731 5727 5723 5719 5715 5710 5705 5700 5695 5691 5686 5680 5675 5671 5666 5660 5658 5658 5655 5654
5788 5786 5784 5781 5779 5777 5775 5773 5770 5768 5765 5763 5760 5757 5754 5750 5747 5744 5740 5736 5732 5728 5724 5719 5715 5710 5705 5700 5695 5690 5684 5678 5673 5667 5661 5655 5650 5644 5639 5634 5632 5630 5630
5781 5779 5777 5775 5773 5770 5768 5766 5763 5760 5757 5754 5751 5748 5745 5741 5738 5734 5730 5726 5721 5717 5712 5707 5702 5696 5691 5685 5679 5673 5667 5660 5653 5647 5640 5633 5627 5620 5615 5609 5605 5603 5604
5774 5772 5770 5768 5765 5763 5760 5758 5755 5752 5749 5746 5742 5738 5735 5731 5727 5723 5718 5714 5709 5704 5698 5693 5687 5681 5674 5667 5661 5654 5647 5639 5632 5625 5617 5610 5603 5595 5589 5582 5577 5572 5572
5767 5764 5762 5760 5758 5755 5752 5749 5746 5743 5740 5736 5732 5728 5724 5720 5716 5711 5706 5701 5695 5689 5683 5677 5670 5663 5656 5648 5641 5633 5625 5617 5609 5600 5592 5584 5576 5568 5562 5555 5549 5542 5539
5759 5757 5754 5752 5749 5746 5743 5740 5737 5733 5730 5726 5722 5717 5713 5708 5703 5698 5692 5686 5680 5674 5667 5660 5652 5644 5636 5627 5619 5610 5601 5592 5584 5574 5566 5558 5549 5541 5534 5527 5521 5516 5510
5751 5748 5746 5743 5740 5737 5734 5730 5727 5723 5719 5715 5710 5705 5700 5695 5689 5684 5677 5671 5664 5657 5649 5641 5633 5624 5614 5605 5595 5586 5576 5567 5558 5548 5539 5531 5522 5515 5508 5501 5495 5490 5485
5742 5739 5736 5733 5730 5727 5724 5720 5716 5712 5708 5703 5698 5693 5687 5681 5675 5668 5662 5654 5647 5638 5630 5621 5612 5602 5592 5582 5571 5561 5551 5541 5532 5523 5514 5507 5498 5492 5484 5478 5473 5468 5463
5733 5730 5727 5723 5720 5717 5713 5709 5705 5700 5695 5690 5685 5679 5673 5667 5660 5653 5645 5637 5628 5619 5610 5600 5590 5579 5569 5558 5547 5536 5527 5517 5508 5500 5491 5484 5476 5470 5464 5458 5453 5448 5443
5723 5720 5716 5713 5709 5706 5702 5697 5693 5688 5683 5677 5671 5665 5658 5651 5644 5636 5628 5619 5609 5599 5589 5579 5568 5557 5545 5534 5523 5513 5504 5495 5487 5479 5471 5464 5457 5451 5445 5440 5436 5430 5426
5713 5709 5706 5702 5698 5694 5690 5685 5680 5675 5670 5664 5657 5650 5643 5636 5627 5619 5610 5600 5590 5579 5568 5557 5546 5534 5522 5511 5500 5490 5483 5475 5468 5461 5454 5447 5441 5435 5429 5424 5419 5415 5410
5702 5698 5695 5691 5687 5683 5678 5673 5668 5662 5656 5649 5642 5635 5627 5619 5610 5601 5591 5581 5570 5559 5548 5536 5524 5513 5502 5490 5480 5471 5463 5457 5450 5444 5438 5432 5426 5420 5414 5410 5405 5400 5396
5691 5687 5683 5679 5675 5670 5666 5660 5655 5648 5642 5635 5627 5619 5611 5602 5592 5583 5572 5561 5550 5539 5527 5516 5504 5493 5483 5472 5463 5454 5447 5441 5435 5428 5422 5417 5411 5405 5399 5395 5391 5387 5383
5679 5675 5671 5667 5663 5658 5653 5647 5641 5634 5627 5619 5611 5602 5593 5584 5575 5564 5553 5542 5531 5519 5508 5496 5485 5475 5465 5455 5446 5438 5432 5426 5420 5414 5408 5402 5397 5392 5386 5381 5378 5374 5371
5667 5663 5659 5654 5650 5645 5639 5633 5627 5619 5612 5604 5595 5586 5576 5566 5556 5545 5534 5522 5511 5500 5489 5478 5467 5457 5448 5440 5431 5423 5417 5412 5407 5401 5395 5389 5383 5378 5372 5367 5364 5361 5357
5655 5651 5646 5641 5636 5631 5625 5619 5612 5604 5596 5588 5579 5569 5558 5548 5537 5526 5515 5503 5492 5482 5472 5462 5452 5442 5433 5425 5417 5410 5403 5398 5393 5388 5382 5377 5371 5365 5360 5355 5350 5347 5343
5642 5638 5634 5628 5622 5617 5611 5604 5597 5589 5581 5572 5562 5552 5541 5530 5519 5508 5497 5485 5474 5464 5454 5445 5437 5428 5419 5412 5404 5397 5391 5385 5379 5375 5369 5364 5359 5353 5348 5343 5338 5334 5330
5630 5625 5620 5615 5609 5602 5595 5588 5581 5573 5564 5555 5545 5534 5524 5512 5501 5490 5479 5468 5457 5447 5438 5430 5422 5415 5407 5399 5392 5386 5380 5373 5367 5362 5357 5352 5346 5341 5336 5331 5326 5322 5318
5617 5612 5607 5601 5595 5588 5580 5572 5565 5556 5547 5538 5528 5517 5507 5496 5484 5472 5461 5451 5440 5431 5423 5415 5408 5402 5395 5387 5381 5375 5369 5363 5356 5350 5345 5340 5334 5329 5324 5319 5315 5310 5306
5603 5598 5593 5587 5580 5573 5565 5557 5548 5539 5530 5521 5510 5500 5489 5478 5468 5457 5445 5435 5426 5415 5407 5401 5394 5388 5383 5376 5369 5362 5357 5351 5345 5339 5334 5329 5324 5318 5313 5308 5303 5299 5294
5589 5584 5578 5571 5564 5557 5549 5540 5531 5522 5512 5503 5492 5482 5471 5461 5450 5441 5432 5421 5412 5403 5394 5386 5380 5374 5369 5363 5357 5351 5346 5340 5334 5328 5323 5318 5313 5308 5302 5298 5293 5288 5284